Probability
0 0 0 0 0 0 0 0 0 0 0 0 0 0 0 0 0 0 0 0 0 0 0 0 0 0 0 0 0 0 0 0 0 0 0 0 3 3
0 0 0 0 0 0 0 0 0 0 0 0 0 0 0 0 0 0 0 0 0 0 0 0 0 0 0 0 0 0 0 0 0 0 0 0 0 0
0 0 0 0 0 0 0 0 0 0 0 0 0 0 0 0 0 0 0 0 0 0 0 0 0 0 0 0 0 0 0 0 0 0 0 0 0 0
0 0 0 0 0 0 0 0 0 0 0 0 0 0 0 0 0 0 0 0 0 0 0 0 0 0 0 0 0 0 0 0 0 0 0 0 0 0
0 0 0 0 0 0 0 0 0 0 0 0 0 0 0 0 0 0 0 0 0 0 0 0 0 0 0 0 0 0 0 0 0 0 0 0 0 0
0 0 0 0 0 0 0 0 0 0 0 0 0 0 0 0 0 0 0 0 0 0 0 0 0 0 0 0 0 0 0 0 0 0 0 0 0 0
0 0 0 0 0 0 0 0 0 0 0 0 0 0 0 0 0 0 0 0 0 0 0 0 0 0 0 0 0 0 0 0 0 0 0 0 0 0
0 0 0 0 0 0 0 0 0 0 0 0 0 0 0 0 0 0 0 0 0 0 0 0 0 0 0 0 0 0 0 0 0 0 0 0 0 0
0 0 0 0 0 0 0 0 0 0 0 0 0 0 0 0 0 0 0 0 0 0 0 0 0 0 0 0 0 0 0 0 0 0 0 0 0 0
0 0 0 0 0 0 0 0 0 0 0 0 0 0 0 0 0 0 0 0 0 0 0 0 0 0 0 0 0 0 0 0 0 0 0 0 0 0
0 0 0 0 0 0 0 0 0 0 0 0 0 0 0 0 0 0 0 0 0 0 0 0 0 0 0 0 0 0 0 0 0 0 0 0 0 0
0 0 0 0 0 0 0 0 0 0 0 0 0 0 0 0 0 0 0 0 0 0 0 0 0 0 0 0 0 0 0 0 0 0 0 0 0 0
0 0 0 0 0 0 0 0 0 0 0 0 0 0 0 0 0 0 0 0 0 0 0 0 0 0 0 0 0 0 0 0 0 0 0 0 0 0
0 0 0 0 0 0 0 0 0 0 0 0 0 0 0 0 0 0 0 0 0 0 0 0 0 0 0 0 0 0 0 0 0 0 0 0 0 0
0 0 0 0 0 0 0 0 0 0 0 0 0 0 0 0 0 0 0 0 0 0 0 0 0 0 0 0 0 0 0 0 0 0 0 0 0 0
0 0 0 0 0 0 0 0 0 0 0 0 0 0 0 0 0 0 0 0 0 0 0 0 0 0 0 0 0 0 0 0 0 0 0 0 0 0
0 0 0 0 0 0 0 0 0 0 0 0 0 0 0 0 0 0 0 0 0 0 0 0 0 0 0 0 0 0 0 0 0 0 0 0 0 0
0 0 0 0 0 0 0 0 0 0 0 0 0 0 0 0 0 0 0 0 0 0 0 0 0 0 0 0 0 0 0 0 0 0 0 0 0 0
0 0 0 0 0 0 0 0 0 0 0 0 0 0 0 0 0 0 0 0 0 0 0 0 0 0 0 0 0 0 0 0 0 0 0 0 0 0
0 0 0 0 0 0 0 0 0 0 0 0 0 0 0 0 0 0 0 0 0 0 0 0 0 0 0 0 0 0 0 0 0 0 0 0 0 0
0 0 0 0 0 0 0 0 0 0 0 0 0 0 0 0 0 0 0 0 0 0 0 0 0 0 0 0 0 0 0 0 0 0 0 0 0 0
0 0 0 0 0 0 0 0 0 0 0 0 0 0 0 0 0 0 0 0 0 0 0 0 0 0 0 0 0 0 0 0 0 0 0 0 0 0
0 0 0 0 0 0 0 0 0 0 0 0 0 0 0 0 0 0 0 0 0 0 0 0 0 0 0 0 0 0 0 0 0 0 0 0 0 0
Height
5677 5678 5678 5679 5680 5680 5681 5682 5683 5683 5684 5683 5682 5682 5681 5680 5679 5678 5677 5675 5673 5670 5668 5665 5663 5660 5656 5653 5649 5645 5641 5637 5634 5631 5628 5625 5622 5619
5667 5668 5668 5669 5669 5670 5670 5671 5671 5672 5672 5672 5672 5672 5671 5671 5670 5668 5667 5665 5663 5661 5659 5656 5654 5651 5647 5644 5640 5637 5633 5629 5626 5622 5619 5616 5613 5610
5657 5658 5659 5659 5659 5660 5660 5661 5661 5661 5662 5662 5662 5662 5661 5661 5660 5659 5657 5656 5654 5652 5649 5647 5644 5641 5638 5635 5631 5628 5625 5621 5617 5614 5610 5607 5604 5601
5648 5649 5649 5650 5650 5650 5650 5650 5651 5651 5652 5652 5652 5652 5652 5651 5650 5649 5648 5646 5645 5642 5640 5637 5635 5632 5629 5626 5622 5619 5616 5612 5609 5605 5602 5599 5596 5592
5639 5640 5640 5641 5641 5641 5641 5641 5641 5641 5642 5643 5643 5643 5642 5641 5641 5640 5639 5637 5635 5633 5630 5628 5625 5622 5619 5617 5613 5610 5607 5604 5600 5597 5593 5590 5587 5584
5631 5631 5631 5632 5632 5632 5632 5631 5631 5632 5632 5633 5633 5633 5633 5632 5631 5631 5629 5628 5626 5624 5621 5618 5616 5613 5611 5608 5605 5602 5598 5595 5591 5588 5584 5581 5578 5575
5623 5623 5623 5623 5622 5622 5622 5622 5622 5622 5623 5623 5623 5624 5623 5622 5622 5621 5620 5618 5617 5615 5612 5610 5607 5605 5602 5599 5596 5593 5589 5586 5583 5579 5576 5572 5570 5567
5614 5614 5614 5614 5614 5613 5613 5612 5613 5613 5613 5613 5614 5614 5614 5613 5612 5611 5610 5609 5608 5607 5604 5601 5598 5596 5593 5589 5586 5583 5580 5577 5574 5570 5567 5564 5562 5559
5605 5605 5605 5605 5604 5604 5604 5603 5603 5603 5603 5604 5604 5604 5604 5603 5602 5602 5600 5598 5597 5596 5593 5591 5588 5586 5583 5580 5577 5574 5571 5568 5565 5562 5559 5556 5554 5552
5596 5596 5596 5596 5595 5595 5595 5594 5594 5594 5594 5594 5595 5595 5594 5593 5592 5591 5590 5588 5587 5585 5583 5582 5579 5577 5574 5571 5568 5565 5562 5559 5556 5554 5551 5549 5547 5546
5588 5587 5587 5587 5586 5586 5586 5585 5585 5585 5585 5585 5585 5584 5584 5583 5582 5581 5580 5579 5578 5577 5575 5573 5571 5569 5566 5563 5560 5557 5554 5551 5548 5546 5544 5542 5541 5540
5579 5579 5578 5577 5577 5576 5576 5576 5576 5576 5576 5576 5575 5575 5574 5574 5573 5573 5572 5571 5569 5569 5567 5565 5563 5560 5559 5556 5553 5550 5546 5543 5541 5539 5537 5536 5535 5534
5570 5570 5569 5568 5568 5567 5567 5567 5567 5566 5566 5566 5566 5566 5565 5565 5565 5564 5563 5562 5561 5560 5559 5557 5555 5552 5550 5549 5546 5543 5540 5537 5535 5532 5531 5530 5529 5529
5561 5560 5560 5559 5559 5558 5558 5558 5557 5557 5557 5557 5557 5557 5557 5557 5556 5556 5555 5554 5553 5551 5550 5548 5547 5545 5543 5541 5539 5537 5534 5531 5529 5527 5526 5525 5524 5524
5551 5551 5550 5550 5550 5549 5549 5548 5548 5548 5548 5548 5548 5548 5548 5548 5547 5547 5547 5546 5545 5543 5542 5540 5539 5537 5535 5533 5532 5530 5528 5526 5523 5522 5521 5520 5520 5520
5541 5541 5541 5541 5540 5539 5539 5539 5538 5539 5539 5539 5539 5539 5539 5539 5538 5538 5538 5537 5537 5536 5534 5533 5531 5530 5528 5527 5525 5523 5521 5520 5519 5517 5516 5515 5515 5515
5532 5532 5531 5531 5531 5530 5529 5529 5529 5529 5530 5530 5529 5530 5530 5530 5529 5530 5529 5529 5528 5528 5526 5525 5524 5523 5522 5520 5519 5517 5516 5514 5513 5512 5512 5511 5511 5511
5523 5522 5522 5522 5521 5521 5520 5520 5520 5520 5520 5520 5520 5520 5520 5520 5521 5521 5521 5521 5520 5519 5518 5517 5517 5516 5516 5514 5513 5511 5510 5509 5508 5508 5507 5507 5508 5507
5513 5513 5513 5513 5512 5511 5511 5510 5510 5510 5510 5510 5511 5511 5511 5511 5511 5512 5512 5512 5512 5511 5510 5509 5509 5509 5509 5509 5508 5506 5505 5504 5504 5504 5503 5503 5504 5504
5504 5503 5503 5503 5502 5502 5502 5501 5501 5501 5501 5501 5501 5502 5502 5502 5502 5503 5503 5504 5503 5503 5502 5502 5502 5502 5502 5502 5501 5501 5500 5499 5499 5499 5499 5499 5499 5500
5495 5494 5493 5493 5493 5493 5492 5492 5492 5492 5492 5492 5492 5492 5493 5493 5494 5494 5495 5495 5495 5495 5495 5495 5494 5494 5495 5495 5496 5496 5495 5495 5495 5495 5496 5496 5497 5497
5486 5485 5484 5484 5484 5484 5483 5483 5483 5483 5483 5483 5483 5484 5484 5484 5485 5486 5486 5486 5487 5487 5487 5487 5487 5487 5488 5489 5490 5490 5491 5491 5491 5491 5492 5493 5493 5494
5477 5476 5475 5475 5475 5475 5474 5474 5474 5474 5474 5475 5475 5475 5475 5476 5477 5477 5478 5478 5479 5480 5480 5481 5481 5481 5482 5483 5484 5485 5486 5486 5487 5488 5488 5489 5490 5490
Wind_Speed
41 41 41 42 42 42 42 41 40 40 40 41 41 39 38 38 37 37 37 37 37 37 37 38 38 38 38 38 37 37 36 36 36 36 36 35 35 34
41 40 40 40 40 40 40 41 40 39 37 38 38 38 37 36 36 37 37 38 38 38 38 39 38 38 39 38 37 37 36 36 36 35 35 34 34 34
39 39 40 39 39 39 40 40 40 38 37 36 37 36 36 36 37 37 37 38 38 38 38 38 38 38 38 38 37 38 37 36 35 35 34 33 34 33
38 38 38 39 39 39 39 38 38 39 37 36 36 36 37 37 37 38 38 37 38 38 38 38 38 37 37 37 37 37 36 35 35 34 34 34 33 33
36 36 36 37 37 38 38 38 38 37 37 36 35 36 36 36 37 37 38 38 38 38 37 37 37 37 36 36 36 36 35 34 33 34 33 33 33 32
33 34 33 34 34 36 37 37 37 36 35 36 36 36 35 35 35 36 37 38 37 37 37 37 37 36 35 35 35 35 34 34 34 33 33 32 32 31
32 32 34 33 33 35 36 36 36 36 36 36 35 35 35 35 35 36 36 36 37 37 36 36 35 35 34 34 35 34 34 34 33 33 32 30 29 28
32 32 32 34 34 34 34 34 35 35 36 35 35 35 35 35 36 36 36 36 36 36 36 35 35 34 34 34 33 33 33 33 33 32 31 29 28 26
31 32 33 34 33 33 34 34 34 34 34 35 35 35 35 35 36 36 36 36 36 35 35 35 35 34 33 33 33 33 32 31 31 30 29 27 27 26
30 31 32 32 32 32 33 34 34 34 34 34 35 35 35 34 35 35 35 35 35 35 34 33 33 34 34 33 32 31 30 30 29 28 28 26 25 24
30 31 31 31 32 32 33 33 33 34 33 33 33 34 35 34 33 33 33 33 32 32 32 32 32 31 31 31 31 29 29 28 28 27 26 25 24 23
31 31 31 31 32 33 33 33 32 32 32 32 33 33 33 33 33 32 31 31 31 30 31 31 30 29 29 30 29 28 28 27 26 26 25 23 23 21
32 32 31 32 32 33 33 32 32 32 32 32 32 32 32 32 32 32 31 31 30 30 30 30 29 29 29 28 28 27 27 26 25 24 23 21 20 19
33 33 32 32 32 33 32 32 31 32 32 31 31 31 30 30 30 30 30 29 29 29 29 29 28 28 28 28 27 27 26 26 25 23 21 20 19 18
33 33 32 32 32 33 33 32 32 31 31 31 30 30 30 30 29 29 29 28 27 27 28 28 27 27 26 26 25 25 24 23 22 21 20 18 17 17
33 33 33 33 33 33 33 32 32 31 31 31 31 30 30 30 29 28 28 29 28 28 27 27 26 26 25 24 24 23 22 20 19 19 18 17 16 15
31 32 32 33 33 33 33 32 32 33 32 31 30 30 30 29 29 28 28 27 28 28 27 27 26 26 25 23 22 21 20 19 18 17 16 16 16 15
31 31 31 32 32 31 31 32 32 32 31 31 30 30 30 29 29 28 28 27 26 27 28 27 26 25 24 22 21 20 19 18 17 16 15 14 14 14
30 31 31 31 31 31 31 31 30 30 30 30 30 29 29 29 29 28 28 27 27 27 27 27 26 24 22 21 20 20 18 17 16 15 15 14 14 13
30 30 30 30 30 30 30 29 29 29 28 29 28 28 28 28 28 28 28 27 27 26 25 25 24 23 22 20 19 19 18 17 16 15 14 13 13 12
30 30 30 30 30 29 29 28 28 28 28 28 28 28 28 28 27 27 26 26 25 25 24 23 23 22 21 19 18 17 16 16 15 14 13 12 11 11
30 30 29 29 29 28 28 27 27 27 27 27 27 27 27 26 27 26 25 25 24 23 22 21 21 20 19 18 17 16 15 15 15 14 13 12 10 10
30 28 28 28 28 27 27 26 26 26 27 27 27 26 26 26 26 25 24 24 23 22 20 20 19 18 17 16 16 15 14 14 13 13 12 12 10 9
Wind_Direction
262 265 268 269 268 268 269 271 273 274 274 273 273 275 276 277 278 281 283 284 286 287 289 291 293 294 296 296 297 297 298 299 299 297 296 295 294 292
263 264 267 269 269 269 269 269 271 273 275 274 273 274 276 278 280 281 282 284 286 287 288 290 292 293 295 295 296 296 297 298 298 297 297 296 295 294
265 266 266 268 270 271 271 271 271 272 273 273 274 273 275 278 279 282 283 285 287 288 289 291 292 293 294 295 295 296 296 296 296 297 298 296 295 296
267 267 267 269 270 272 271 271 271 272 271 272 274 274 276 277 278 281 283 285 287 287 289 290 292 293 294 295 295 296 296 296 297 296 297 297 297 296
265 266 268 269 269 270 271 271 271 272 270 272 273 275 277 277 278 280 282 284 286 287 289 290 291 292 293 295 295 296 297 298 297 296 296 297 297 296
266 266 269 269 268 269 271 272 271 271 271 272 274 275 277 279 279 279 281 283 285 287 288 290 291 292 294 294 295 296 297 298 298 297 296 296 296 295
269 270 271 270 271 271 271 271 272 272 272 272 273 275 277 279 279 280 280 282 285 286 288 289 290 291 293 295 295 295 296 296 297 297 297 298 296 294
271 272 272 271 270 272 273 272 273 272 272 272 272 273 276 280 280 282 281 282 284 286 287 288 289 290 291 292 293 294 294 295 297 296 296 295 294 292
273 273 273 272 272 274 273 273 272 273 274 275 274 274 277 280 281 283 285 285 286 286 286 288 289 291 291 290 291 293 294 294 295 296 295 294 292 289
274 275 274 275 274 275 274 273 272 274 277 277 277 277 277 280 283 284 284 286 287 286 286 287 289 290 291 291 292 293 295 296 295 294 293 292 291 290
274 275 275 274 274 274 275 274 272 274 275 276 278 279 279 279 282 282 283 285 286 286 286 287 289 290 290 292 293 294 295 295 295 293 292 290 290 291
275 275 276 276 275 275 276 274 272 272 274 277 278 278 279 279 280 280 282 283 284 286 287 288 289 290 291 292 293 293 295 295 294 293 291 289 289 290
274 274 276 277 276 276 276 275 273 273 274 277 278 278 279 280 279 280 281 283 285 287 288 289 289 290 291 292 291 292 293 294 294 292 290 288 288 290
274 274 275 277 278 276 276 276 275 274 274 276 277 277 277 278 280 281 281 284 285 287 288 289 291 291 292 292 291 291 292 292 292 292 291 287 286 288
275 274 277 278 278 278 277 276 275 274 274 275 276 276 275 277 280 281 280 282 285 287 288 289 290 292 293 292 291 292 293 293 292 293 293 289 286 286
277 276 277 278 279 280 278 275 274 272 272 274 275 275 275 275 277 280 281 282 284 286 287 288 289 290 292 293 293 294 295 294 291 291 290 288 285 286
278 277 277 279 280 279 277 275 273 273 274 276 275 273 273 275 276 278 280 280 282 284 285 285 285 288 289 291 293 294 295 295 291 288 286 284 283 284
279 277 277 278 279 279 278 275 274 274 275 274 273 273 272 273 275 276 278 278 281 283 282 281 283 284 286 286 289 291 293 292 290 287 285 283 280 279
280 278 277 277 278 279 279 277 275 275 275 274 272 272 273 273 273 275 276 277 279 281 281 281 281 281 281 282 282 284 288 287 286 284 281 280 278 276
282 279 277 277 277 278 279 278 275 274 274 274 272 272 273 273 272 273 274 275 277 279 279 278 278 278 277 279 279 279 282 283 282 281 277 275 273 271
282 281 279 278 278 279 279 277 275 273 273 274 273 273 272 272 271 271 272 273 275 277 277 276 276 275 273 274 276 277 277 279 279 278 275 269 264 262
281 280 279 278 277 277 278 277 276 274 273 273 273 272 271 271 271 270 270 271 273 274 274 272 272 272 271 270 271 272 272 273 276 276 273 268 264 259
280 279 279 278 276 276 276 276 275 274 273 272 272 270 270 270 270 270 270 269 271 271 270 269 268 268 269 267 266 266 267 266 267 267 266 262 259 256